Fairbanks, AK

1:27 AM AKDT on July 23, 2017 (GMT -0800)
Fairbanks International

Weather History for PAFA - May, 2013

Change the Weather History Date:

Sunday, May 5, 2013

  Actual Average Record
Temperature  
Mean Temperature 32 °F 45 °F  
Max Temperature 41 °F 56 °F 70 °F (1960)
Min Temperature 22 °F 33 °F 11 °F (1945)
Degree Days  
Heating Degree Days 33 20  
Month to date heating degree days 172 106  
Since 1 July heating degree days 14331 13130  
Cooling Degree Days 0 0  
Month to date cooling degree days 0 0  
Year to date cooling degree days 0 0  
Moisture  
Dew Point 13 °F    
Average Humidity 46    
Maximum Humidity 78    
Minimum Humidity 22    
Precipitation  
Precipitation 0.00 in 0.02 in 0.27 in (1941)
Month to date precipitation 0.11 0.08  
Year to date precipitation 2.30 1.64  
Snow  
Snow 0.00 in 0.10 in 2.90 in (2001)
Month to date snowfall 1.7 0.3  
Since 1 July snowfall 68.3 64.4  
Snow Depth 15.00 in    
Sea Level Pressure  
Sea Level Pressure 30.11 in    
Wind  
Wind Speed 4 mph (SW)    
Max Wind Speed 15 mph    
Max Gust Speed 20 mph    
Visibility 10 miles    
Events      
T = Trace of Precipitation, MM = Missing Value Source: NWS Daily Summary

Daily Weather History Graph

Daily Weather History Graph

Search for Another Location

Airport or City:

Trip Planner

Search our weather history database for the weather conditions in past years. The results will help you decide how hot, cold, wet, or windy it might be!

Date:

Astronomy

May. 05, 2013 Rise Set
Actual Time 5:02 AM AKDT 10:36 PM AKDT
Civil Twilight 3:41 AM AKDT 11:59 PM AKDT
Nautical Twilight Sun does not set Sun does not set
Astronomical Twilight Sun does not set Sun does not set
Moon 4:15 AM AKDT (5/5) 5:19 PM AKDT (5/5)
Length of Visible Light 20h 18m
Length of Day
17h 33m
Waning Crescent, 17% of the Moon is Illuminated
May 5
Waning Crescent
May 9
New
May 17
First Quarter
May 24
Full
May 31
Last Quarter

Hourly Weather History & Observations

Time (AKDT) Temp. Windchill Dew Point Humidity Pressure Visibility Wind Dir Wind Speed Gust Speed Precip Events Conditions
12:53 AM 28.9 °F - 19.0 °F 67% 30.02 in 10.0 mi Calm Calm - N/A   Mostly Cloudy
1:53 AM 30.0 °F 25.2 °F 18.0 °F 61% 30.03 in 10.0 mi SW 4.6 mph - N/A   Mostly Cloudy
2:53 AM 28.0 °F 22.8 °F 17.1 °F 63% 30.05 in 10.0 mi SSW 4.6 mph - N/A   Overcast
3:53 AM 27.0 °F - 17.1 °F 66% 30.06 in 10.0 mi Calm Calm - N/A   Overcast
4:53 AM 24.1 °F - 17.1 °F 75% 30.08 in 10.0 mi Calm Calm - N/A   Overcast
5:53 AM 23.0 °F - 17.1 °F 78% 30.09 in 10.0 mi Calm Calm - N/A   Mostly Cloudy
6:53 AM 23.0 °F - 17.1 °F 78% 30.11 in 10.0 mi Calm Calm - N/A   Mostly Cloudy
7:53 AM 26.1 °F - 18.0 °F 71% 30.12 in 10.0 mi Calm Calm - N/A   Mostly Cloudy
8:53 AM 28.9 °F - 18.0 °F 64% 30.14 in 10.0 mi Calm Calm - N/A   Scattered Clouds
9:53 AM 32.0 °F 24.2 °F 10.0 °F 40% 30.14 in 10.0 mi SSW 9.2 mph - N/A   Partly Cloudy
10:53 AM 33.1 °F 26.1 °F 10.9 °F 40% 30.14 in 10.0 mi SSW 8.1 mph - N/A   Partly Cloudy
11:53 AM 33.1 °F 23.0 °F 10.9 °F 40% 30.14 in 10.0 mi SSW 15.0 mph 19.6 mph N/A   Partly Cloudy
12:53 PM 35.1 °F 27.4 °F 12.9 °F 40% 30.14 in 10.0 mi SSW 10.4 mph - N/A   Partly Cloudy
1:53 PM 35.1 °F 27.9 °F 12.0 °F 39% 30.15 in 10.0 mi SSW 9.2 mph 17.3 mph N/A   Partly Cloudy
2:53 PM 37.0 °F 28.5 °F 12.0 °F 36% 30.14 in 10.0 mi SSW 13.8 mph 18.4 mph N/A   Partly Cloudy
3:53 PM 37.0 °F 29.3 °F 12.0 °F 36% 30.13 in 10.0 mi SSW 11.5 mph - N/A   Partly Cloudy
4:53 PM 39.9 °F 36.7 °F 10.9 °F 31% 30.13 in 10.0 mi SW 4.6 mph - N/A   Partly Cloudy
5:53 PM 39.9 °F 35.8 °F 10.9 °F 31% 30.12 in 10.0 mi West 5.8 mph - N/A   Partly Cloudy
6:53 PM 39.0 °F 32.3 °F 12.0 °F 33% 30.12 in 10.0 mi WNW 10.4 mph - N/A   Clear
7:53 PM 39.0 °F 32.8 °F 9.0 °F 29% 30.12 in 10.0 mi WNW 9.2 mph - N/A   Clear
8:53 PM 37.9 °F 30.9 °F 9.0 °F 30% 30.12 in 10.0 mi West 10.4 mph - N/A   Clear
9:53 PM 35.1 °F 28.6 °F 10.9 °F 37% 30.12 in 10.0 mi West 8.1 mph - N/A   Clear
10:53 PM 30.9 °F 26.2 °F 10.0 °F 42% 30.10 in 10.0 mi West 4.6 mph - N/A   Clear
11:53 PM 28.9 °F - 10.0 °F 45% 30.13 in 10.0 mi Calm Calm - N/A   Partly Cloudy